St. Augustine, FL

1:41 AM EDT on July 25, 2017 (GMT -0400)
Saint Augustine

Weather History for KSGJ - January, 2014

Change the Weather History Date:

Thursday, January 30, 2014

  Actual Average Record
Temperature  
Mean Temperature 42 °F -  
Max Temperature 46 °F 62 °F 85 °F (1991)
Min Temperature 37 °F 45 °F 30 °F (2007)
Degree Days  
Heating Degree Days 24    
Moisture  
Dew Point 41 °F    
Average Humidity 95    
Maximum Humidity 100    
Minimum Humidity 87    
Precipitation  
Precipitation 0.45 in - - ()
Sea Level Pressure  
Sea Level Pressure 30.22 in    
Wind  
Wind Speed 13 mph (NNW)    
Max Wind Speed 17 mph    
Max Gust Speed 24 mph    
Visibility 5 miles    
Events Rain    
Averages and records for this station are not official NWS values.
T = Trace of Precipitation, MM = Missing Value Source: NWS Daily Summary

Daily Weather History Graph

Daily Weather History Graph

Search for Another Location

Airport or City:

Trip Planner

Search our weather history database for the weather conditions in past years. The results will help you decide how hot, cold, wet, or windy it might be!

Date:

Astronomy

Jan. 30, 2014 Rise Set
Actual Time 7:16 AM EST 6:01 PM EST
Civil Twilight 6:51 AM EST 6:26 PM EST
Nautical Twilight 6:22 AM EST 6:54 PM EST
Astronomical Twilight 5:54 AM EST 7:23 PM EST
Moon 6:44 AM EST (1/30) 6:06 PM EST (1/30)
Length of Visible Light 11h 34m
Length of Day
10h 44m
Waning Crescent, 0% of the Moon is Illuminated
Jan 30
Waning Crescent
Jan 30
New
Feb 6
First Quarter
Feb 14
Full
Feb 22
Last Quarter

Hourly Weather History & Observations

Time (EST) Temp. Windchill Dew Point Humidity Pressure Visibility Wind Dir Wind Speed Gust Speed Precip Events Conditions
12:10 AM 39.2 °F 31.2 °F 37.4 °F 93% 30.25 in 7.0 mi NNW 13.8 mph - 0.01 in Rain Light Rain
12:58 AM 39.0 °F 31.4 °F 37.0 °F 93% 30.25 in 6.0 mi NNW 12.7 mph - 0.06 in Rain Rain
1:58 AM 37.9 °F 29.6 °F 36.0 °F 93% 30.24 in 7.0 mi NNW 13.8 mph - 0.10 in Rain Rain
2:40 AM 37.4 °F 30.3 °F 37.4 °F 100% 30.22 in 7.0 mi NNW 10.4 mph - 0.09 in Rain Light Rain
2:47 AM 37.4 °F 29.8 °F 37.4 °F 100% 30.22 in 6.0 mi NNW 11.5 mph - 0.10 in Rain Rain
2:58 AM 37.9 °F 29.6 °F 37.0 °F 97% 30.23 in 6.0 mi NW 13.8 mph - 0.11 in Rain Light Rain
3:58 AM 39.0 °F 31.0 °F 37.9 °F 96% 30.22 in 5.0 mi NW 13.8 mph - 0.06 in Rain Light Rain
4:58 AM 37.9 °F 30.9 °F 37.0 °F 97% 30.22 in 7.0 mi NNW 10.4 mph - 0.01 in Rain Light Rain
5:58 AM 37.0 °F 28.9 °F 36.0 °F 96% 30.22 in 5.0 mi NNW 12.7 mph - 0.01 in Rain Light Rain
6:33 AM 39.2 °F 31.6 °F 37.4 °F 93% 30.23 in 2.5 mi NNW 12.7 mph - 0.02 in Rain Light Rain
6:58 AM 39.0 °F 32.3 °F 37.9 °F 96% 30.22 in 2.5 mi NNW 10.4 mph - 0.05 in Rain Light Rain
7:31 AM 39.2 °F 31.6 °F 37.4 °F 93% 30.23 in 1.8 mi NNW 12.7 mph - 0.02 in Rain Light Rain
7:39 AM 39.2 °F 30.5 °F 37.4 °F 93% 30.23 in 2.0 mi NNW 16.1 mph 23.0 mph 0.03 in Rain Light Rain
7:53 AM 39.2 °F 32.0 °F 37.4 °F 93% 30.23 in 3.0 mi NNW 11.5 mph - 0.03 in Rain Light Rain
7:58 AM 39.0 °F 31.4 °F 37.9 °F 96% 30.24 in 3.0 mi NNW 12.7 mph - 0.03 in Rain Light Rain
8:58 AM 39.9 °F 32.5 °F 39.0 °F 97% 30.24 in 2.0 mi NNW 12.7 mph - 0.00 in Rain Light Rain
8:59 AM 39.2 °F 31.2 °F 39.2 °F 100% 30.24 in 5.0 mi NNW 13.8 mph - 0.00 in Rain Light Rain
9:50 AM 41.0 °F 33.9 °F 39.2 °F 93% 30.25 in 6.0 mi NNW 12.7 mph - 0.00 in Rain Light Rain
9:58 AM 41.0 °F 33.1 °F 39.9 °F 96% 30.26 in 4.0 mi NNW 15.0 mph - 0.00 in Rain Light Rain
10:07 AM 42.8 °F 36.6 °F 39.2 °F 87% 30.26 in 2.5 mi NNW 11.5 mph - 0.00 in Rain Light Rain
10:16 AM 42.8 °F 36.2 °F 41.0 °F 93% 30.26 in 3.0 mi NNW 12.7 mph - 0.00 in Rain Light Rain
10:52 AM 46.4 °F 39.8 °F 44.6 °F 93% 30.26 in 6.0 mi North 16.1 mph - 0.00 in   Overcast
10:58 AM 46.0 °F 39.0 °F 45.0 °F 96% 30.26 in 6.0 mi North 17.3 mph - 0.00 in   Overcast
11:24 AM 44.6 °F 37.8 °F 42.8 °F 93% 30.26 in 7.0 mi NNW 15.0 mph 23.0 mph 0.00 in Rain Light Rain
11:58 AM 46.0 °F 39.6 °F 44.1 °F 93% 30.25 in 5.0 mi North 15.0 mph 24.2 mph 0.00 in Rain Light Rain
12:27 PM 46.4 °F 39.8 °F 44.6 °F 93% 30.24 in 2.5 mi North 16.1 mph - 0.01 in Rain Light Rain
12:41 PM 46.4 °F 39.8 °F 44.6 °F 93% 30.23 in 3.0 mi North 16.1 mph - 0.01 in Rain Light Rain
12:58 PM 46.0 °F 39.3 °F 45.0 °F 96% 30.22 in 5.0 mi North 16.1 mph 23.0 mph 0.02 in Rain Light Rain
1:58 PM 46.0 °F 39.0 °F 44.1 °F 93% 30.18 in 3.0 mi North 17.3 mph - 0.00 in   Overcast
2:58 PM 46.0 °F 39.0 °F 44.1 °F 93% 30.18 in 3.0 mi NNW 17.3 mph - 0.00 in Rain Light Rain
3:03 PM 44.6 °F 37.4 °F 44.6 °F 100% 30.18 in 2.0 mi North 16.1 mph - 0.00 in Rain Light Rain
3:11 PM 46.4 °F 39.8 °F 44.6 °F 93% 30.18 in 2.0 mi North 16.1 mph - 0.00 in Rain Light Rain
3:58 PM 46.0 °F 39.6 °F 45.0 °F 96% 30.19 in 2.0 mi North 15.0 mph - 0.00 in   Overcast
4:58 PM 45.0 °F 38.2 °F 44.1 °F 97% 30.20 in 2.0 mi North 15.0 mph 21.9 mph N/A   Overcast
5:58 PM 44.1 °F 36.8 °F 43.0 °F 96% 30.20 in 2.0 mi North 16.1 mph 23.0 mph N/A   Overcast
6:40 PM 44.6 °F 38.1 °F 42.8 °F 93% 30.20 in 5.0 mi North 13.8 mph - N/A   Overcast
6:58 PM 45.0 °F 38.9 °F 43.0 °F 93% 30.20 in 5.0 mi North 12.7 mph - N/A   Overcast
7:58 PM 45.0 °F 39.3 °F 43.0 °F 93% 30.19 in 10.0 mi North 11.5 mph - N/A   Overcast
8:58 PM 45.0 °F 38.9 °F 43.0 °F 93% 30.19 in 10.0 mi North 12.7 mph - N/A   Overcast
9:58 PM 45.0 °F 39.7 °F 43.0 °F 93% 30.18 in 10.0 mi North 10.4 mph - N/A   Overcast
10:58 PM 46.9 °F - 45.0 °F 93% 30.17 in 10.0 mi North 13.8 mph - N/A   Overcast